This is the latest recevied weather packets stored in our database for station/object CQ0XCH-11. If no packets are shown the sender has not sent any weather packets the latest 10 day(s).
| Time | Temp. | Humidity | Pressure | Rain* | Wind** | Luminosity | Snow |
|---|---|---|---|---|---|---|---|
| 1777620186 | 20° C | 42% | 998.3 hPa | 0 mm | - | - | - |
| 1777620067 | 20° C | 42% | 998.4 hPa | 0 mm | - | - | - |
| 1777619929 | 20.56° C | 41% | 998.2 hPa | 0 mm | - | - | - |
| 1777619848 | 20.56° C | 42% | 998.3 hPa | 0 mm | - | - | - |
| 1777619574 | 20.56° C | 42% | 998.2 hPa | 0 mm | - | - | - |
| 1777619464 | 20° C | 42% | 998.2 hPa | 0 mm | - | - | - |
| 1777619330 | 20° C | 43% | 998 hPa | 0 mm | - | - | - |
| 1777619201 | 20° C | 42% | 998 hPa | 0 mm | - | - | - |
| 1777618989 | 19.44° C | 42% | 997.9 hPa | 0 mm | - | - | - |
| 1777618827 | 19.44° C | 44% | 998 hPa | 0 mm | - | - | - |
| 1777618697 | 18.89° C | 44% | 998 hPa | 0 mm | - | - | - |
| 1777618581 | 18.89° C | 45% | 998 hPa | 0 mm | - | - | - |
| 1777618473 | 18.33° C | 45% | 998.1 hPa | 0 mm | - | - | - |
| 1777618367 | 18.33° C | 45% | 998 hPa | 0 mm | - | - | - |
| 1777618205 | 17.78° C | 46% | 997.9 hPa | 0 mm | - | - | - |
| 1777618094 | 17.78° C | 46% | 998 hPa | 0 mm | - | - | - |
| 1777617362 | 16.67° C | 48% | 998.1 hPa | 0 mm | - | - | - |
| 1777617238 | 16.11° C | 48% | 998.1 hPa | 0 mm | - | - | - |
| 1777617178 | 16.11° C | 49% | 997.9 hPa | 0 mm | - | - | - |
| 1777616991 | 15.56° C | 49% | 998 hPa | 0 mm | - | - | - |
| 1777616859 | 15.56° C | 49% | 997.9 hPa | 0 mm | - | - | - |
| 1777616628 | 15° C | 50% | 998 hPa | 0 mm | - | - | - |
| 1777616493 | 15° C | 50% | 998 hPa | 0 mm | - | - | - |
| 1777616391 | 15° C | 50% | 997.9 hPa | 0 mm | - | - | - |
| 1777616240 | 15° C | 49% | 997.8 hPa | 0 mm | - | - | - |
* Rain since midnight (hover to see other rain measurements)
** Current wind speed in m/s (hover to see current wind gust speed)